Regional Weather Roundup
Issued by NWS Bismarck, ND

Current Version | Previous Version | Text Only | Print | Product List | Glossary On
Versions: 1 2 3 4 5 6 7 8 9 10 11 12 13 14 15 16 17 18 19 20 21 22 23 24 25 26 27 28 29 30 31 32 33 34 35 36 37 38 39 40 41 42 43 44 45 46 47 48 49 50
000
ASUS43 KBIS 021010
RWRBIS

NWR BROADCAST TEXT
NATIONAL WEATHER SERVICE BISMARCK ND
500 AM CDT WED SEP 02 2015

NOTE: "FAIR" INDICATES FEW OR NO CLOUDS BELOW 12,000 FEET WITH NO
SIGNIFICANT WEATHER AND/OR OBSTRUCTIONS TO VISIBILITY.


CITY           SKY/WX    TMP DP  RH WIND       PRES   REMARKS
WILLISTON      CLEAR     57  45  64 N5        29.77S
MINOT          CLEAR     62  59  90 E5        29.77R
MINOT AFB      NOT AVBL
BISMARCK       CLEAR     63  62  97 E7        29.79S
DICKINSON      CLEAR     57  53  86 S7        29.80S
GARRISON         N/A     58  57  97 CALM      29.79R
HETTINGER ARPT PTCLDY    51  47  86 CALM      29.83F
JAMESTOWN      MOCLDY    65  62  90 S8        29.81F
HAZEN          FAIR      55  55 100 SE5       29.79S FOG
RUGBY          FAIR      68  68 100 S9        29.78F
STANLEY        FAIR      55  55 100 CALM      29.81S
$$

CITY           SKY/WX    TMP DP  RH WIND       PRES   REMARKS
GRAND FORKS    CLEAR     63  61  93 SE3       29.82R
GRAND FORKS AF PTCLDY    61  61 100 S1        29.82R
DEVILS LAKE    CLEAR     68  61  77 SE6       29.80S
FARGO          CLEAR     70  67  90 SE9       29.84R
CAVALIER       FAIR      63  57  82 S6        29.80S
GRAFTON        FAIR      63  63 100 SE3       29.82S
GWINNER          N/A     63  63 100 S3        29.83S
LANGDON        FAIR      66  64  94 SE8       29.83R
ROLLA          FAIR      61  61 100 S6        29.81S
$$

CITY           SKY/WX    TMP DP  RH WIND       PRES   REMARKS
ABERDEEN       CLEAR     66  64  93 E5        29.80S
MOBRIDGE       CLEAR     65  65 100 E8        29.77S FOG
BUFFALO          N/A     64  54  69 SE7       29.77S
RAPID CITY     CLEAR     60  49  66 NW10      29.85R
GLASGOW        CLEAR     59  41  51 E14       29.71F
SIDNEY         CLEAR     52  41  66 CALM      29.77R
WOLF POINT     CLEAR     52  43  71 E5        29.75F
GLENDIVE       CLEAR     57  41  54 NE8       29.77F
MILES CITY     CLEAR     61  41  47 N6        29.73S
BAKER          CLEAR     57  51  80 SE5       29.81F
$$

CITY           SKY/WX    TMP DP  RH WIND       PRES   REMARKS
BILLINGS       PTCLDY    63  34  33 SW10      29.77F
GREAT FALLS    FAIR      52  33  48 SW12      29.74R
REGINA           N/A     52  45  76 E7        29.77R
ESTEVAN        PTCLDY    52  46  82 SE7       29.78S
$$



USA.gov is the U.S. government's official web portal to all federal, state and local government web resources and services.